QPF
0.00 0.01 0.01 0.01 0.01 0.02 0.01 0.01 0.02 0.02 0.03 0.03 0.03 0.03 0.04 0.04 0.05 0.06 0.09 0.08 0.06 0.07 0.05 0.03 0.03 0.05 0.05 0.07 0.07 0.07 0.07 0.06 0.05 0.04 0.03 0.02 0.02 0.03 0.02 0.03 0.04 0.05 0.05 0.05
0.01 0.01 0.01 0.00 0.01 0.01 0.02 0.02 0.02 0.02 0.03 0.04 0.05 0.04 0.04 0.05 0.04 0.08 0.14 0.10 0.05 0.03 0.04 0.03 0.03 0.04 0.04 0.05 0.07 0.06 0.05 0.05 0.04 0.04 0.03 0.01 0.02 0.03 0.03 0.03 0.04 0.04 0.04 0.04
0.01 0.01 0.00 0.01 0.01 0.01 0.01 0.03 0.02 0.02 0.04 0.04 0.05 0.04 0.03 0.05 0.08 0.12 0.10 0.06 0.04 0.03 0.03 0.05 0.06 0.05 0.04 0.04 0.03 0.03 0.03 0.04 0.04 0.03 0.03 0.02 0.03 0.03 0.04 0.04 0.05 0.05 0.04 0.03
0.01 0.01 0.00 0.01 0.01 0.01 0.02 0.02 0.03 0.03 0.04 0.04 0.05 0.05 0.05 0.04 0.05 0.05 0.03 0.03 0.03 0.03 0.04 0.05 0.05 0.05 0.05 0.05 0.04 0.04 0.04 0.04 0.04 0.03 0.02 0.03 0.03 0.03 0.03 0.04 0.05 0.04 0.03 0.03
0.01 0.01 0.01 0.01 0.02 0.02 0.02 0.02 0.02 0.04 0.04 0.04 0.05 0.04 0.03 0.02 0.02 0.02 0.02 0.02 0.03 0.05 0.07 0.06 0.05 0.05 0.06 0.06 0.05 0.06 0.05 0.04 0.03 0.03 0.02 0.02 0.02 0.03 0.03 0.03 0.03 0.03 0.03 0.03
0.01 0.02 0.02 0.02 0.02 0.02 0.02 0.03 0.03 0.05 0.06 0.05 0.05 0.04 0.04 0.03 0.03 0.04 0.03 0.03 0.04 0.05 0.05 0.04 0.03 0.03 0.03 0.03 0.03 0.03 0.03 0.03 0.04 0.04 0.03 0.03 0.03 0.03 0.03 0.04 0.04 0.03 0.02 0.02
0.01 0.01 0.02 0.02 0.02 0.02 0.02 0.03 0.03 0.03 0.04 0.03 0.04 0.03 0.02 0.03 0.04 0.04 0.02 0.02 0.04 0.07 0.07 0.04 0.03 0.03 0.04 0.03 0.04 0.05 0.05 0.05 0.05 0.04 0.04 0.03 0.03 0.03 0.03 0.03 0.04 0.03 0.02 0.02
0.01 0.02 0.02 0.02 0.02 0.02 0.05 0.05 0.03 0.03 0.05 0.03 0.03 0.03 0.02 0.02 0.02 0.02 0.02 0.03 0.03 0.03 0.04 0.04 0.04 0.06 0.06 0.08 0.09 0.09 0.09 0.07 0.05 0.04 0.04 0.03 0.02 0.02 0.04 0.04 0.03 0.03 0.03 0.03
0.02 0.03 0.03 0.02 0.03 0.03 0.05 0.04 0.04 0.04 0.05 0.03 0.03 0.03 0.02 0.02 0.02 0.03 0.03 0.03 0.02 0.02 0.03 0.04 0.05 0.05 0.07 0.09 0.09 0.09 0.09 0.07 0.04 0.03 0.04 0.03 0.02 0.02 0.03 0.04 0.03 0.03 0.03 0.03
0.06 0.05 0.04 0.04 0.04 0.04 0.04 0.03 0.03 0.03 0.03 0.02 0.03 0.02 0.02 0.02 0.02 0.03 0.03 0.03 0.05 0.04 0.04 0.04 0.04 0.04 0.05 0.08 0.08 0.07 0.06 0.06 0.04 0.04 0.04 0.04 0.03 0.03 0.03 0.04 0.03 0.03 0.03 0.03
0.04 0.05 0.05 0.05 0.07 0.07 0.05 0.03 0.03 0.03 0.03 0.02 0.02 0.02 0.02 0.02 0.02 0.03 0.03 0.06 0.08 0.09 0.09 0.08 0.06 0.04 0.04 0.04 0.05 0.04 0.04 0.04 0.03 0.03 0.04 0.04 0.04 0.03 0.03 0.04 0.03 0.03 0.04 0.04
0.03 0.02 0.02 0.02 0.03 0.04 0.05 0.04 0.05 0.05 0.03 0.03 0.03 0.02 0.02 0.02 0.02 0.03 0.03 0.04 0.05 0.05 0.04 0.03 0.03 0.04 0.04 0.04 0.06 0.07 0.07 0.06 0.05 0.05 0.05 0.06 0.06 0.04 0.03 0.04 0.05 0.04 0.05 0.07
0.02 0.04 0.02 0.01 0.02 0.03 0.05 0.04 0.02 0.04 0.03 0.03 0.03 0.02 0.02 0.02 0.02 0.02 0.04 0.05 0.06 0.05 0.03 0.02 0.02 0.02 0.03 0.04 0.07 0.09 0.10 0.07 0.06 0.06 0.05 0.06 0.07 0.05 0.03 0.03 0.04 0.04 0.05 0.07
0.01 0.03 0.05 0.03 0.03 0.04 0.04 0.03 0.03 0.03 0.04 0.04 0.03 0.02 0.01 0.02 0.03 0.05 0.05 0.06 0.05 0.04 0.03 0.02 0.02 0.03 0.05 0.06 0.06 0.07 0.07 0.06 0.06 0.05 0.04 0.03 0.03 0.02 0.02 0.02 0.02 0.03 0.03 0.02
0.02 0.03 0.05 0.06 0.04 0.04 0.03 0.03 0.02 0.02 0.03 0.02 0.02 0.03 0.03 0.02 0.03 0.04 0.05 0.04 0.03 0.03 0.03 0.03 0.04 0.05 0.09 0.10 0.10 0.15 0.19 0.14 0.08 0.05 0.04 0.02 0.01 0.01 0.01 0.01 0.01 0.01 0.01 0.01
0.02 0.04 0.04 0.04 0.05 0.05 0.03 0.03 0.02 0.02 0.03 0.02 0.02 0.04 0.06 0.04 0.03 0.04 0.05 0.03 0.03 0.05 0.06 0.06 0.06 0.06 0.06 0.05 0.05 0.05 0.09 0.09 0.07 0.05 0.04 0.03 0.02 0.01 0.01 0.01 0.01 0.01 0.01 0.00
0.02 0.02 0.03 0.04 0.04 0.05 0.04 0.03 0.03 0.02 0.02 0.03 0.03 0.03 0.05 0.05 0.04 0.04 0.04 0.03 0.03 0.04 0.04 0.04 0.04 0.03 0.03 0.04 0.04 0.04 0.04 0.04 0.04 0.04 0.03 0.02 0.02 0.02 0.01 0.01 0.01 0.01 0.01 0.01
0.01 0.01 0.01 0.04 0.06 0.07 0.05 0.03 0.03 0.03 0.03 0.04 0.05 0.05 0.04 0.03 0.02 0.02 0.03 0.03 0.02 0.02 0.01 0.01 0.01 0.02 0.03 0.05 0.06 0.05 0.04 0.03 0.02 0.02 0.02 0.02 0.02 0.03 0.02 0.01 0.01 0.02 0.02 0.02
0.01 0.01 0.02 0.03 0.05 0.08 0.08 0.05 0.04 0.03 0.03 0.04 0.05 0.05 0.05 0.03 0.03 0.03 0.03 0.02 0.02 0.02 0.01 0.01 0.02 0.03 0.04 0.05 0.06 0.07 0.06 0.04 0.03 0.02 0.01 0.01 0.01 0.02 0.04 0.03 0.02 0.02 0.02 0.02
0.01 0.02 0.02 0.03 0.04 0.04 0.05 0.04 0.04 0.03 0.04 0.05 0.06 0.07 0.08 0.06 0.04 0.02 0.03 0.02 0.02 0.02 0.02 0.02 0.03 0.05 0.06 0.07 0.08 0.08 0.07 0.05 0.04 0.02 0.02 0.01 0.01 0.01 0.03 0.03 0.03 0.02 0.02 0.02
0.03 0.03 0.03 0.05 0.06 0.05 0.04 0.04 0.04 0.03 0.04 0.06 0.09 0.08 0.06 0.04 0.04 0.03 0.02 0.02 0.02 0.03 0.03 0.03 0.03 0.04 0.06 0.09 0.10 0.09 0.08 0.06 0.04 0.03 0.02 0.01 0.01 0.01 0.02 0.02 0.02 0.02 0.02 0.02
0.03 0.03 0.03 0.05 0.06 0.05 0.04 0.04 0.04 0.03 0.03 0.03 0.03 0.03 0.03 0.04 0.04 0.03 0.02 0.02 0.02 0.03 0.03 0.03 0.03 0.04 0.05 0.04 0.05 0.05 0.05 0.05 0.04 0.03 0.02 0.02 0.01 0.01 0.01 0.01 0.01 0.01 0.02 0.02
0.03 0.03 0.03 0.04 0.04 0.04 0.04 0.03 0.03 0.03 0.03 0.02 0.02 0.02 0.02 0.02 0.02 0.02 0.03 0.02 0.02 0.04 0.03 0.03 0.04 0.05 0.05 0.04 0.04 0.04 0.03 0.03 0.03 0.02 0.02 0.01 0.01 0.01 0.02 0.01 0.01 0.01 0.01 0.02
0.03 0.04 0.04 0.03 0.03 0.03 0.03 0.03 0.03 0.03 0.04 0.03 0.03 0.03 0.03 0.03 0.03 0.03 0.04 0.04 0.04 0.04 0.03 0.03 0.06 0.07 0.05 0.04 0.04 0.04 0.03 0.02 0.02 0.01 0.01 0.01 0.01 0.02 0.02 0.02 0.01 0.01 0.02 0.03
0.03 0.04 0.04 0.03 0.03 0.03 0.02 0.03 0.04 0.04 0.04 0.03 0.03 0.03 0.04 0.04 0.04 0.04 0.04 0.05 0.05 0.05 0.05 0.06 0.07 0.06 0.06 0.04 0.03 0.02 0.02 0.01 0.01 0.02 0.02 0.02 0.02 0.02 0.02 0.03 0.03 0.03 0.03 0.04
0.03 0.04 0.05 0.04 0.03 0.03 0.03 0.05 0.06 0.04 0.04 0.04 0.05 0.07 0.07 0.08 0.07 0.06 0.05 0.06 0.07 0.07 0.06 0.05 0.05 0.05 0.06 0.05 0.04 0.03 0.02 0.03 0.03 0.03 0.03 0.03 0.03 0.03 0.03 0.04 0.05 0.05 0.04 0.04
0.04 0.04 0.05 0.05 0.04 0.03 0.04 0.05 0.06 0.06 0.07 0.08 0.09 0.09 0.07 0.08 0.13 0.09 0.05 0.06 0.07 0.07 0.06 0.04 0.03 0.03 0.04 0.04 0.03 0.02 0.02 0.03 0.03 0.03 0.02 0.03 0.03 0.03 0.04 0.04 0.04 0.04 0.04 0.04
MSLP
1012.79 1013.20 1013.62 1014.07 1014.56 1015.09 1015.62 1016.13 1016.57 1016.91 1017.13 1017.22 1017.19 1017.08 1016.91 1016.70 1016.49 1016.29 1016.10 1015.92 1015.74 1015.56 1015.38 1015.19 1015.02 1014.87 1014.75 1014.66 1014.60 1014.55 1014.49 1014.40 1014.28 1014.10 1013.88 1013.63 1013.37 1013.12 1012.90 1012.72 1012.58 1012.48 1012.39 1012.29
1013.77 1014.31 1014.78 1015.21 1015.60 1015.96 1016.29 1016.60 1016.86 1017.07 1017.23 1017.32 1017.35 1017.33 1017.26 1017.16 1017.02 1016.84 1016.64 1016.42 1016.17 1015.92 1015.67 1015.44 1015.24 1015.08 1014.97 1014.90 1014.85 1014.81 1014.76 1014.67 1014.53 1014.36 1014.15 1013.93 1013.72 1013.54 1013.41 1013.32 1013.29 1013.28 1013.27 1013.23
1014.75 1015.37 1015.88 1016.29 1016.61 1016.84 1017.03 1017.17 1017.28 1017.37 1017.44 1017.50 1017.54 1017.55 1017.53 1017.46 1017.35 1017.19 1016.98 1016.73 1016.46 1016.17 1015.90 1015.67 1015.47 1015.34 1015.25 1015.19 1015.16 1015.11 1015.03 1014.91 1014.75 1014.55 1014.33 1014.11 1013.93 1013.81 1013.75 1013.76 1013.81 1013.89 1013.95 1013.98
1015.74 1016.37 1016.87 1017.23 1017.47 1017.60 1017.66 1017.68 1017.67 1017.66 1017.65 1017.66 1017.67 1017.67 1017.65 1017.60 1017.50 1017.35 1017.14 1016.90 1016.63 1016.36 1016.11 1015.91 1015.76 1015.66 1015.60 1015.56 1015.52 1015.46 1015.35 1015.19 1014.98 1014.73 1014.48 1014.26 1014.09 1014.00 1013.99 1014.06 1014.18 1014.33 1014.45 1014.52
1016.68 1017.23 1017.65 1017.93 1018.07 1018.11 1018.07 1017.99 1017.89 1017.80 1017.73 1017.70 1017.68 1017.67 1017.65 1017.60 1017.51 1017.38 1017.19 1016.98 1016.75 1016.53 1016.34 1016.19 1016.09 1016.04 1016.01 1015.99 1015.94 1015.86 1015.71 1015.50 1015.24 1014.95 1014.67 1014.43 1014.26 1014.19 1014.21 1014.31 1014.48 1014.66 1014.82 1014.92
1017.50 1017.90 1018.18 1018.33 1018.37 1018.30 1018.18 1018.03 1017.87 1017.74 1017.65 1017.59 1017.57 1017.56 1017.55 1017.52 1017.45 1017.35 1017.21 1017.04 1016.87 1016.72 1016.59 1016.51 1016.46 1016.45 1016.44 1016.43 1016.37 1016.26 1016.08 1015.83 1015.53 1015.21 1014.91 1014.66 1014.50 1014.44 1014.47 1014.60 1014.78 1014.98 1015.15 1015.25
1018.13 1018.34 1018.44 1018.44 1018.35 1018.19 1018.00 1017.81 1017.64 1017.50 1017.41 1017.37 1017.37 1017.38 1017.40 1017.41 1017.38 1017.33 1017.24 1017.14 1017.04 1016.94 1016.88 1016.84 1016.83 1016.84 1016.85 1016.82 1016.75 1016.61 1016.40 1016.13 1015.82 1015.50 1015.21 1014.97 1014.83 1014.78 1014.83 1014.97 1015.15 1015.34 1015.49 1015.56
1018.51 1018.51 1018.43 1018.28 1018.07 1017.84 1017.62 1017.41 1017.25 1017.15 1017.10 1017.10 1017.15 1017.21 1017.28 1017.34 1017.37 1017.38 1017.35 1017.31 1017.26 1017.22 1017.19 1017.18 1017.18 1017.19 1017.18 1017.13 1017.03 1016.87 1016.65 1016.38 1016.08 1015.78 1015.52 1015.33 1015.22 1015.20 1015.27 1015.41 1015.58 1015.75 1015.86 1015.90
1018.63 1018.45 1018.21 1017.93 1017.64 1017.37 1017.13 1016.95 1016.84 1016.79 1016.81 1016.87 1016.98 1017.11 1017.24 1017.36 1017.45 1017.51 1017.54 1017.54 1017.54 1017.52 1017.51 1017.50 1017.49 1017.46 1017.41 1017.32 1017.19 1017.01 1016.79 1016.53 1016.27 1016.02 1015.82 1015.69 1015.63 1015.65 1015.75 1015.89 1016.04 1016.17 1016.24 1016.23
1018.52 1018.20 1017.85 1017.50 1017.17 1016.89 1016.68 1016.55 1016.50 1016.52 1016.61 1016.75 1016.93 1017.12 1017.30 1017.47 1017.61 1017.72 1017.79 1017.83 1017.85 1017.85 1017.83 1017.79 1017.74 1017.67 1017.56 1017.43 1017.26 1017.06 1016.83 1016.61 1016.39 1016.21 1016.08 1016.01 1016.02 1016.08 1016.20 1016.33 1016.46 1016.55 1016.57 1016.50
1018.24 1017.85 1017.45 1017.07 1016.76 1016.52 1016.36 1016.30 1016.32 1016.42 1016.57 1016.77 1017.00 1017.23 1017.45 1017.66 1017.83 1017.97 1018.08 1018.14 1018.17 1018.17 1018.13 1018.07 1017.97 1017.84 1017.67 1017.49 1017.28 1017.06 1016.84 1016.64 1016.47 1016.35 1016.29 1016.29 1016.34 1016.44 1016.56 1016.68 1016.77 1016.81 1016.78 1016.65
1017.88 1017.46 1017.07 1016.73 1016.46 1016.29 1016.22 1016.24 1016.33 1016.49 1016.69 1016.92 1017.17 1017.42 1017.66 1017.87 1018.06 1018.22 1018.35 1018.43 1018.47 1018.47 1018.42 1018.33 1018.19 1018.01 1017.80 1017.57 1017.33 1017.09 1016.87 1016.69 1016.56 1016.49 1016.47 1016.51 1016.59 1016.70 1016.81 1016.90 1016.95 1016.93 1016.83 1016.66
1017.49 1017.11 1016.76 1016.50 1016.32 1016.24 1016.25 1016.34 1016.50 1016.69 1016.92 1017.16 1017.40 1017.63 1017.86 1018.07 1018.26 1018.43 1018.57 1018.67 1018.73 1018.74 1018.70 1018.59 1018.44 1018.24 1018.00 1017.73 1017.46 1017.21 1016.99 1016.82 1016.70 1016.65 1016.65 1016.71 1016.79 1016.88 1016.95 1016.99 1016.97 1016.89 1016.74 1016.51
1017.15 1016.82 1016.55 1016.38 1016.30 1016.32 1016.41 1016.57 1016.77 1016.98 1017.20 1017.42 1017.63 1017.83 1018.02 1018.21 1018.39 1018.56 1018.72 1018.85 1018.94 1018.98 1018.96 1018.88 1018.73 1018.53 1018.28 1018.00 1017.72 1017.46 1017.23 1017.05 1016.93 1016.87 1016.87 1016.90 1016.95 1016.99 1017.00 1016.98 1016.89 1016.74 1016.52 1016.25
1016.89 1016.62 1016.44 1016.36 1016.39 1016.50 1016.67 1016.87 1017.09 1017.31 1017.51 1017.68 1017.84 1017.99 1018.14 1018.29 1018.46 1018.63 1018.81 1018.97 1019.10 1019.19 1019.22 1019.17 1019.05 1018.87 1018.63 1018.36 1018.08 1017.81 1017.57 1017.38 1017.24 1017.15 1017.11 1017.10 1017.09 1017.07 1017.01 1016.90 1016.74 1016.51 1016.24 1015.92
1016.72 1016.52 1016.42 1016.44 1016.55 1016.74 1016.97 1017.22 1017.45 1017.65 1017.81 1017.93 1018.03 1018.13 1018.23 1018.35 1018.50 1018.68 1018.87 1019.07 1019.24 1019.38 1019.46 1019.46 1019.39 1019.23 1019.02 1018.76 1018.48 1018.21 1017.96 1017.75 1017.58 1017.46 1017.37 1017.29 1017.22 1017.12 1016.98 1016.80 1016.56 1016.27 1015.94 1015.58
1016.63 1016.50 1016.49 1016.59 1016.79 1017.04 1017.32 1017.58 1017.81 1017.99 1018.11 1018.19 1018.23 1018.27 1018.33 1018.42 1018.55 1018.72 1018.93 1019.16 1019.37 1019.55 1019.68 1019.72 1019.69 1019.57 1019.38 1019.14 1018.87 1018.59 1018.33 1018.10 1017.90 1017.74 1017.60 1017.47 1017.32 1017.16 1016.95 1016.69 1016.38 1016.03 1015.65 1015.26
1016.64 1016.58 1016.64 1016.82 1017.09 1017.39 1017.70 1017.98 1018.20 1018.35 1018.44 1018.47 1018.47 1018.46 1018.48 1018.53 1018.65 1018.81 1019.03 1019.26 1019.50 1019.70 1019.85 1019.92 1019.91 1019.82 1019.65 1019.42 1019.16 1018.88 1018.61 1018.36 1018.14 1017.94 1017.76 1017.58 1017.39 1017.16 1016.90 1016.59 1016.23 1015.83 1015.41 1014.99
1016.72 1016.73 1016.87 1017.12 1017.44 1017.78 1018.11 1018.40 1018.61 1018.74 1018.79 1018.78 1018.74 1018.70 1018.68 1018.71 1018.80 1018.95 1019.15 1019.38 1019.61 1019.81 1019.96 1020.04 1020.03 1019.95 1019.78 1019.56 1019.30 1019.03 1018.75 1018.50 1018.26 1018.05 1017.84 1017.63 1017.40 1017.14 1016.84 1016.49 1016.10 1015.67 1015.23 1014.78
1016.86 1016.95 1017.16 1017.47 1017.83 1018.20 1018.54 1018.81 1019.01 1019.12 1019.14 1019.11 1019.04 1018.96 1018.92 1018.92 1018.98 1019.10 1019.27 1019.47 1019.68 1019.85 1019.98 1020.04 1020.03 1019.93 1019.77 1019.55 1019.29 1019.02 1018.76 1018.51 1018.27 1018.05 1017.84 1017.62 1017.37 1017.10 1016.77 1016.40 1016.00 1015.55 1015.09 1014.62
1017.04 1017.20 1017.48 1017.82 1018.21 1018.59 1018.92 1019.18 1019.35 1019.44 1019.44 1019.38 1019.28 1019.19 1019.12 1019.10 1019.13 1019.22 1019.35 1019.52 1019.68 1019.82 1019.91 1019.94 1019.90 1019.80 1019.63 1019.41 1019.17 1018.91 1018.66 1018.42 1018.20 1018.00 1017.79 1017.57 1017.33 1017.05 1016.72 1016.35 1015.93 1015.48 1015.01 1014.53
1017.22 1017.45 1017.76 1018.13 1018.52 1018.89 1019.20 1019.43 1019.57 1019.63 1019.60 1019.52 1019.41 1019.30 1019.22 1019.17 1019.18 1019.24 1019.34 1019.46 1019.59 1019.69 1019.74 1019.74 1019.69 1019.57 1019.40 1019.20 1018.97 1018.74 1018.52 1018.31 1018.11 1017.93 1017.74 1017.54 1017.31 1017.03 1016.71 1016.34 1015.92 1015.47 1014.99 1014.50
1017.35 1017.62 1017.96 1018.33 1018.70 1019.03 1019.30 1019.49 1019.60 1019.62 1019.57 1019.47 1019.35 1019.24 1019.14 1019.09 1019.09 1019.13 1019.20 1019.30 1019.39 1019.46 1019.49 1019.48 1019.41 1019.30 1019.14 1018.96 1018.76 1018.57 1018.39 1018.21 1018.06 1017.90 1017.74 1017.56 1017.34 1017.07 1016.76 1016.39 1015.97 1015.52 1015.03 1014.53
1017.40 1017.69 1018.01 1018.36 1018.68 1018.97 1019.19 1019.33 1019.39 1019.38 1019.31 1019.20 1019.08 1018.97 1018.88 1018.84 1018.83 1018.87 1018.94 1019.02 1019.10 1019.16 1019.18 1019.17 1019.11 1019.01 1018.89 1018.74 1018.59 1018.44 1018.30 1018.17 1018.05 1017.93 1017.80 1017.63 1017.43 1017.17 1016.86 1016.50 1016.08 1015.62 1015.13 1014.62
1017.33 1017.60 1017.90 1018.19 1018.46 1018.68 1018.84 1018.93 1018.95 1018.91 1018.82 1018.72 1018.61 1018.52 1018.45 1018.43 1018.45 1018.50 1018.58 1018.67 1018.75 1018.82 1018.85 1018.85 1018.82 1018.75 1018.67 1018.57 1018.46 1018.36 1018.27 1018.19 1018.10 1018.01 1017.90 1017.75 1017.56 1017.31 1017.01 1016.64 1016.22 1015.75 1015.25 1014.73
1017.12 1017.36 1017.60 1017.83 1018.04 1018.19 1018.29 1018.33 1018.32 1018.26 1018.19 1018.09 1018.02 1017.96 1017.94 1017.95 1018.01 1018.09 1018.19 1018.30 1018.40 1018.48 1018.54 1018.56 1018.55 1018.52 1018.48 1018.42 1018.36 1018.31 1018.26 1018.21 1018.16 1018.10 1018.00 1017.87 1017.69 1017.44 1017.14 1016.77 1016.35 1015.88 1015.37 1014.85
1016.78 1016.96 1017.15 1017.32 1017.46 1017.56 1017.61 1017.62 1017.60 1017.55 1017.49 1017.43 1017.40 1017.39 1017.42 1017.49 1017.58 1017.70 1017.84 1017.97 1018.09 1018.19 1018.26 1018.30 1018.32 1018.31 1018.30 1018.27 1018.25 1018.23 1018.21 1018.19 1018.17 1018.12 1018.04 1017.92 1017.74 1017.50 1017.20 1016.84 1016.42 1015.95 1015.45 1014.92
Thickness
5789 5797 5800 5797 5798 5798 5788 5777 5766 5769 5770 5779 5785 5787 5787 5786 5783 5779 5776 5773 5770 5767 5764 5762 5758 5755 5753 5751 5748 5745 5739 5734 5731 5728 5726 5724 5721 5718 5715 5713 5711 5709 5706 5704
5781 5793 5793 5789 5794 5795 5791 5788 5780 5776 5773 5788 5789 5786 5782 5780 5778 5773 5771 5770 5768 5765 5761 5757 5753 5749 5746 5744 5742 5738 5733 5729 5726 5723 5720 5718 5715 5712 5709 5706 5704 5702 5700 5698
5758 5776 5778 5765 5782 5786 5784 5786 5780 5768 5774 5783 5779 5779 5777 5776 5775 5770 5768 5766 5762 5760 5757 5754 5749 5745 5741 5739 5736 5731 5728 5724 5721 5718 5715 5712 5710 5705 5702 5700 5697 5695 5693 5691
5747 5755 5741 5763 5790 5792 5783 5780 5783 5782 5782 5781 5779 5778 5777 5776 5772 5768 5765 5762 5760 5757 5753 5750 5747 5742 5738 5734 5730 5726 5722 5718 5715 5712 5709 5706 5702 5698 5696 5694 5690 5687 5685 5683
5732 5731 5740 5763 5781 5782 5771 5764 5778 5776 5775 5775 5775 5770 5765 5771 5771 5767 5764 5761 5758 5755 5750 5745 5741 5737 5733 5727 5724 5720 5716 5712 5710 5706 5703 5699 5696 5693 5690 5687 5684 5681 5679 5677
5729 5724 5721 5748 5777 5788 5773 5748 5770 5772 5769 5768 5765 5747 5750 5764 5766 5763 5760 5757 5753 5749 5744 5738 5734 5731 5726 5720 5717 5714 5712 5709 5706 5702 5698 5694 5691 5688 5686 5682 5678 5676 5672 5670
5723 5720 5728 5756 5772 5775 5742 5741 5765 5768 5766 5762 5755 5753 5756 5759 5758 5756 5753 5750 5748 5742 5737 5732 5729 5726 5719 5714 5711 5710 5708 5704 5700 5696 5693 5690 5686 5683 5680 5677 5672 5669 5666 5663
5715 5710 5719 5755 5759 5749 5747 5759 5761 5759 5758 5756 5753 5754 5754 5751 5749 5747 5744 5741 5739 5733 5728 5727 5724 5719 5713 5709 5707 5705 5702 5698 5694 5691 5688 5686 5681 5677 5674 5670 5666 5662 5658 5656
5715 5716 5733 5746 5748 5753 5754 5753 5753 5751 5751 5750 5746 5743 5743 5742 5740 5738 5735 5732 5730 5726 5722 5719 5717 5714 5708 5705 5703 5699 5695 5691 5688 5686 5683 5680 5675 5671 5667 5664 5660 5656 5652 5649
5711 5718 5729 5738 5744 5747 5749 5748 5749 5748 5745 5744 5738 5735 5734 5734 5732 5729 5727 5724 5721 5718 5714 5711 5710 5708 5705 5702 5699 5695 5690 5686 5684 5680 5676 5673 5670 5666 5662 5658 5654 5651 5648 5644
5700 5710 5719 5726 5732 5736 5739 5741 5741 5741 5740 5737 5733 5729 5727 5725 5724 5722 5720 5718 5715 5711 5707 5705 5704 5701 5699 5697 5693 5688 5684 5681 5677 5674 5671 5666 5663 5660 5658 5656 5653 5648 5645 5642
5690 5701 5704 5710 5721 5727 5728 5728 5730 5730 5728 5728 5727 5723 5721 5718 5717 5715 5713 5710 5707 5704 5701 5699 5698 5695 5693 5690 5687 5682 5677 5673 5670 5667 5664 5660 5656 5653 5652 5651 5649 5646 5643 5639
5698 5705 5706 5710 5714 5718 5718 5719 5721 5721 5719 5717 5718 5718 5716 5712 5710 5708 5705 5702 5699 5696 5694 5692 5690 5688 5686 5684 5680 5676 5671 5668 5664 5661 5657 5653 5650 5647 5643 5642 5642 5640 5637 5635
5698 5699 5696 5700 5702 5707 5710 5712 5713 5712 5711 5710 5710 5709 5708 5705 5702 5699 5696 5694 5691 5689 5687 5685 5683 5681 5680 5678 5674 5670 5667 5664 5659 5655 5652 5649 5645 5642 5639 5636 5633 5631 5631 5628
5689 5690 5689 5692 5695 5698 5700 5702 5700 5698 5698 5698 5699 5699 5697 5695 5692 5690 5689 5687 5684 5680 5678 5677 5675 5674 5674 5671 5667 5664 5661 5658 5654 5650 5647 5644 5641 5637 5635 5632 5629 5626 5624 5622
5678 5681 5682 5682 5683 5685 5687 5689 5688 5688 5689 5689 5689 5689 5688 5687 5685 5683 5681 5679 5675 5671 5670 5668 5667 5667 5666 5664 5661 5658 5655 5654 5651 5646 5642 5639 5635 5632 5630 5627 5624 5621 5619 5618
5666 5667 5669 5669 5673 5676 5678 5680 5681 5682 5682 5681 5681 5681 5680 5678 5675 5673 5672 5671 5669 5666 5664 5662 5661 5662 5660 5658 5654 5652 5650 5648 5646 5642 5638 5635 5632 5629 5627 5624 5621 5618 5616 5616
5665 5666 5667 5666 5666 5667 5670 5673 5674 5675 5675 5675 5675 5673 5671 5668 5666 5666 5665 5663 5661 5659 5658 5658 5657 5656 5654 5653 5650 5647 5645 5643 5640 5637 5634 5632 5629 5627 5625 5622 5619 5617 5614 5612
5660 5661 5662 5663 5663 5662 5662 5663 5664 5667 5669 5669 5667 5664 5663 5662 5661 5660 5658 5656 5653 5651 5652 5654 5652 5651 5649 5647 5645 5642 5640 5637 5635 5632 5630 5628 5626 5623 5621 5618 5616 5614 5612 5609
5653 5654 5655 5655 5656 5656 5656 5657 5658 5658 5660 5659 5658 5655 5653 5654 5654 5653 5651 5649 5649 5650 5650 5649 5647 5645 5644 5642 5640 5637 5635 5632 5630 5628 5626 5623 5621 5619 5617 5615 5613 5610 5607 5605
5644 5646 5647 5647 5648 5650 5650 5650 5650 5650 5651 5652 5650 5647 5647 5647 5648 5647 5644 5643 5645 5646 5645 5644 5642 5640 5638 5637 5635 5632 5630 5628 5625 5623 5621 5619 5617 5615 5613 5611 5608 5606 5603 5600
5637 5638 5639 5640 5640 5641 5642 5643 5643 5643 5643 5643 5644 5643 5642 5641 5641 5640 5640 5639 5641 5641 5639 5637 5636 5635 5633 5631 5629 5627 5625 5623 5621 5619 5617 5614 5612 5609 5607 5605 5602 5600 5598 5595
5630 5631 5632 5632 5633 5634 5635 5636 5636 5637 5637 5638 5638 5637 5636 5635 5635 5633 5631 5634 5635 5634 5633 5631 5631 5629 5628 5625 5623 5622 5620 5618 5616 5614 5612 5610 5607 5604 5601 5600 5597 5595 5592 5589
5624 5625 5627 5627 5627 5627 5627 5628 5630 5631 5632 5632 5633 5633 5631 5630 5628 5629 5629 5630 5629 5628 5626 5625 5624 5623 5621 5619 5617 5615 5613 5612 5611 5608 5606 5604 5601 5598 5596 5594 5591 5589 5586 5584
5620 5622 5622 5622 5621 5621 5622 5623 5624 5625 5625 5624 5625 5626 5626 5626 5623 5623 5623 5623 5622 5621 5619 5618 5617 5616 5614 5612 5610 5608 5606 5605 5604 5602 5599 5597 5594 5592 5589 5587 5584 5582 5579 5576
5614 5615 5616 5618 5618 5618 5618 5619 5618 5618 5618 5617 5617 5618 5619 5619 5619 5618 5617 5616 5615 5614 5612 5611 5610 5609 5607 5605 5603 5601 5600 5598 5596 5594 5592 5589 5586 5583 5581 5578 5577 5574 5571 5569
5610 5611 5612 5613 5614 5615 5615 5614 5612 5612 5612 5611 5610 5611 5612 5612 5612 5611 5610 5609 5607 5606 5605 5604 5602 5602 5600 5598 5596 5594 5592 5590 5588 5586 5584 5581 5578 5575 5572 5570 5567 5565 5562 5560